Meteor 2-2 Rocket - Orbit

View from above orbital plane
View from above orbital plane
View from above satellite
View from above satellite

Ground track
Ground track

The orbit data is extracted from the following two-line orbital elements,

1 09662U 77002B   13144.19876403  .00000123  00000-0  73940-4 0   501
2 09662 081.2774 052.1507 0051280 254.3178 256.7353 14.00746868858725
Epoch (UTC): 24 May 2013 04:46:13
Eccentricity: 0.0051280
inclination: 81.2774°
perigee height: 854 km
apogee height: 928 km
right ascension of ascending node: 52.1507°
argument of perigee: 254.3178°
revolutions per day: 14.00746868
mean anomaly at epoch: 256.7353°
orbit number at epoch: 85872

The dashed part of the orbit path shows where the satellite is in the earth's shadow,  

Developed and maintained by Chris Peat, Heavens-Above GmbH. Please read the updated FAQ before sending e-mail. Imprint. DLR